EW9439 Weather Reports


Display with metric or nautical units.
time (UTC)temp
F
wind
direction
speed
MPH
gust
MPH
rain 1hr
in
rain 24hr
in
rain mn
in
humidity
%
barometer
mb
20260901230036 88 205 0.0 0.0 0.00 0.00 0.00 64 1013.2
20260901224529 89 205 0.0 0.0 0.00 0.00 0.00 59 1013.2
20260901223028 89 205 0.0 0.0 0.00 0.00 0.00 59 1013.1
20260901221532 89 13 0.0 0.0 0.00 0.00 0.00 58 1013.1
20260901220051 89 13 0.0 0.0 0.00 0.00 0.00 62 1013.0
20260901214523 89 13 0.0 0.0 0.00 0.00 0.00 58 1013.0
20260901213100 90 13 0.0 0.0 0.00 0.00 0.00 57 1013.1
20260901211534 90 13 0.0 0.0 0.00 0.00 0.00 56 1013.2
20260901210047 91 13 0.0 0.0 0.00 0.00 0.00 57 1013.2
20260901204541 91 157 0.0 0.0 0.00 0.00 0.00 55 1013.4
20260901203100 91 147 0.0 0.0 0.00 0.00 0.00 54 1013.6
20260901201541 91 144 0.0 1.0 0.00 0.00 0.00 58 1013.9
20260901200046 92 350 0.0 5.0 0.00 0.00 0.00 55 1013.9
20260901194549 91 72 0.0 0.0 0.00 0.00 0.00 56 1014.0
20260901193101 91 72 0.0 0.0 0.00 0.00 0.00 54 1014.4
20260901191557 92 360 0.0 0.0 0.00 0.00 0.00 53 1014.5
20260901184603 91 81 0.0 2.0 0.00 0.00 0.00 55 1014.8
20260901183102 89 329 0.0 0.0 0.00 0.00 0.00 61 1014.8
20260901183001 89 329 0.0 0.0 0.00 0.00 0.00 61 1014.8
20260901181505 88 280 0.0 0.0 0.00 0.00 0.00 61 1015.0
20260901180055 90 266 0.0 0.0 0.00 0.00 0.00 62 1015.1
20260901180005 90 266 0.0 0.0 0.00 0.00 0.00 63 1015.1
20260901174547 89 223 0.0 0.0 0.00 0.00 0.00 64 1015.3
20260901173058 89 218 0.0 0.0 0.00 0.00 0.00 61 1015.4
20260901171551 88 109 0.0 0.0 0.00 0.00 0.00 64 1015.6
20260901170106 88 109 0.0 0.0 0.00 0.00 0.00 64 1015.8
20260901164505 89 109 0.0 0.0 0.00 0.00 0.00 62 1016.1
20260901163008 89 108 0.0 0.0 0.00 0.00 0.00 61 1016.2
20260901161523 88 108 0.0 0.0 0.00 0.00 0.00 62 1016.4
20260901160032 89 101 0.0 0.0 0.00 0.00 0.00 59 1016.7
20260901154530 88 179 0.0 0.0 0.00 0.00 0.00 68 1016.8
20260901153034 88 179 0.0 0.0 0.00 0.00 0.00 67 1016.8
20260901151532 86 180 0.0 0.0 0.00 0.00 0.00 70 1016.9
20260901150034 85 180 0.0 0.0 0.00 0.00 0.00 73 1016.9
20260901144536 84 180 0.0 0.0 0.00 0.00 0.00 73 1016.9
20260901143044 83 355 0.0 0.0 0.00 0.00 0.00 77 1016.9
20260901141543 82 355 0.0 0.0 0.00 0.00 0.00 80 1016.8
20260901140050 80 355 0.0 0.0 0.00 0.00 0.00 82 1016.6
20260901134546 80 355 0.0 0.0 0.00 0.00 0.00 84 1016.6
20260901133041 78 355 0.0 0.0 0.00 0.00 0.00 88 1016.5
20260901131539 76 355 0.0 0.0 0.00 0.00 0.00 93 1016.5
20260901130039 74 355 0.0 0.0 0.00 0.00 0.00 95 1016.6
20260901124539 72 355 0.0 0.0 0.00 0.00 0.00 96 1016.6
20260901123042 71 355 0.0 0.0 0.00 0.00 0.00 96 1016.6
20260901121542 71 355 0.0 0.0 0.00 0.00 0.00 96 1016.5
20260901120054 70 355 0.0 0.0 0.00 0.00 0.00 95 1016.3
20260901114554 70 355 0.0 0.0 0.00 0.00 0.00 95 1016.0
20260901113049 70 355 0.0 0.0 0.00 0.00 0.00 95 1015.8
20260901111554 70 355 0.0 0.0 0.00 0.00 0.00 95 1015.6
20260901110058 70 355 0.0 0.0 0.00 0.00 0.00 95 1015.5
20260901104557 70 355 0.0 0.0 0.00 0.00 0.00 94 1015.4
20260901103100 70 355 0.0 0.0 0.00 0.00 0.00 94 1015.3
20260901103002 70 355 0.0 0.0 0.00 0.00 0.00 94 1015.4
20260901101607 70 355 0.0 0.0 0.00 0.00 0.00 94 1015.3
20260901101507 70 355 0.0 0.0 0.00 0.00 0.00 94 1015.3
20260901100010 71 355 0.0 0.0 0.00 0.00 0.00 94 1015.2
20260901094514 71 355 0.0 0.0 0.00 0.00 0.00 94 1015.0
20260901093010 71 355 0.0 0.0 0.00 0.00 0.00 94 1015.1
20260901091510 71 355 0.0 0.0 0.00 0.00 0.00 94 1015.0
20260901090012 71 355 0.0 0.0 0.00 0.00 0.00 94 1014.8
20260901084512 71 355 0.0 0.0 0.00 0.00 0.00 93 1014.8
20260901083011 71 355 0.0 0.0 0.00 0.00 0.00 93 1014.8
20260901081512 71 355 0.0 0.0 0.00 0.00 0.00 93 1015.0
20260901080012 72 355 0.0 0.0 0.00 0.00 0.00 93 1014.8
20260901074516 72 355 0.0 0.0 0.00 0.00 0.00 92 1014.7
20260901073056 72 355 0.0 0.0 0.00 0.00 0.00 92 1014.7
20260901071558 72 355 0.0 0.0 0.00 0.00 0.00 92 1014.8
20260901070022 72 355 0.0 0.0 0.00 0.00 0.00 92 1014.9
20260901064525 73 355 0.0 0.0 0.00 0.00 0.00 91 1015.1
20260901063019 73 355 0.0 0.0 0.00 0.00 0.00 91 1015.1
20260901061522 73 355 0.0 0.0 0.00 0.00 0.00 90 1015.1
20260901060023 73 355 0.0 0.0 0.00 0.00 0.00 90 1015.1
20260901054525 73 355 0.0 0.0 0.00 0.00 0.00 90 1015.2
20260901053039 73 355 0.0 0.0 0.00 0.00 0.00 90 1015.4
20260901051531 73 355 0.0 0.0 0.00 0.00 0.00 90 1015.3
20260901050031 73 355 0.0 0.0 0.00 0.00 0.00 89 1015.3
20260901044531 73 355 0.0 0.0 0.00 0.00 0.00 89 1015.3
20260901043012 74 355 0.0 0.0 0.00 0.00 0.00 89 1015.2
20260901041547 74 355 0.0 0.0 0.00 0.00 0.00 89 1015.2
20260901040107 74 355 0.0 0.0 0.00 0.00 0.00 88 1015.1
20260901034603 74 355 0.0 0.0 0.00 0.00 0.00 87 1015.2
20260901033050 74 355 0.0 0.0 0.00 0.00 0.00 87 1015.3
20260901031554 75 355 0.0 0.0 0.00 0.00 0.00 86 1015.2
20260901030058 75 355 0.0 0.0 0.00 0.00 0.00 85 1015.3
20260901024558 75 355 0.0 0.0 0.00 0.00 0.00 84 1015.3
20260901023106 76 355 0.0 0.0 0.00 0.00 0.00 83 1015.2
20260901021553 76 355 0.0 0.0 0.00 0.00 0.00 81 1015.1
20260901020049 76 355 0.0 0.0 0.00 0.00 0.00 80 1015.0
20260901014558 77 355 0.0 0.0 0.00 0.00 0.00 78 1014.9
20260901013052 77 355 0.0 0.0 0.00 0.00 0.00 77 1014.8
20260901011553 78 355 0.0 0.0 0.00 0.00 0.00 75 1014.6
20260901010058 79 355 0.0 0.0 0.00 0.00 0.00 74 1014.4
20260901004508 80 355 0.0 0.0 0.00 0.00 0.00 71 1014.2
20260901003016 81 355 0.0 0.0 0.00 0.00 0.00 69 1014.2
20260901001519 82 355 0.0 0.0 0.00 0.00 0.00 67 1014.1
20260901000027 83 355 0.0 0.0 0.00 0.00 0.00 67 1014.0
20260831234514 84 355 0.0 0.0 0.00 0.00 0.00 64 1013.9
20260831233021 85 355 0.0 0.0 0.00 0.00 0.00 63 1014.0
20260831231523 87 355 0.0 0.0 0.00 0.00 0.00 62 1014.0